This demonstration page uses our WeatherBlox Daily Observations layout. Learn more.

Left ArrowRight Arrow

47.50024, -111.30081

Hourly Observations for April 4, 2020

Temp ( °F °C ) Dew Point ( °F °C ) Humidity (%) Winds ( mph kmh ) Pressure ( in mb ) Visibility ( mi km ) Precip ( " mm )
12:24 am 00:24 Cloudy 31 -0.6 21 -6.1 67 67 N 20 31 29.88 1012 10 16 0.00 0.00
12:53 am 00:53 Cloudy with Light Snow 28 -2.2 24 -4.4 85 85 N 12 19 29.87 1012 4 6 0.00 0.00
1:17 am 01:17 Cloudy with Light Snow 28 -2.2 24 -4.4 85 85 NNE 8 13 29.91 1013 3 5 0.00 0.00
1:27 am 01:27 Cloudy with Light Snow 28 -2.2 24 -4.4 85 85 ENE 5 7 29.90 1013 3 5 0.00 0.00
1:53 am 01:53 Mostly Cloudy 27 -2.8 23 -5 85 85 E 5 7 29.86 1011 10 16 0.00 0.00
2:53 am 02:53 Cloudy 28 -2.2 24 -4.4 85 85 SE 6 9 29.85 1011 10 16 0.00 0.00
3:53 am 03:53 Clear 25 -3.9 22 -5.6 88 88 SE 8 13 29.85 1011 10 16 0.00 0.00
4:53 am 04:53 Mostly Cloudy 21 -6.1 18 -7.8 88 88 Calm 29.87 1012 10 16 0.00 0.00
5:12 am 05:12 Cloudy with Light Snow 24 -4.4 21 -6.1 88 88 WNW 7 11 29.95 1014 5 8 0.00 0.00
5:27 am 05:27 Mostly Cloudy 23 -5 20 -6.7 88 88 WNW 6 9 29.96 1014 10 16 0.00 0.00
5:36 am 05:36 Cloudy 23 -5 20 -6.7 88 88 NW 5 7 29.97 1015 10 16 0.00 0.00
5:49 am 05:49 Cloudy 25 -4 21 -6 86 86 NNW 6 9 29.95 1014 10 16 0.00 0.00
5:53 am 05:53 Cloudy 25 -3.9 22 -5.6 88 88 NW 6 9 29.88 1012 10 16 0.00 0.00
6:10 am 06:10 Cloudy 25 -3.9 22 -5.6 88 88 NW 8 13 29.95 1014 10 16 0.00 0.00
6:53 am 06:53 Cloudy with Mist and Fog 25 -3.9 22 -5.6 88 88 N 7 11 29.92 1013 6 10 0.00 0.00
7:53 am 07:53 Cloudy 24 -4.4 21 -6.1 88 88 NNE 6 9 29.95 1014 7 11 0.00 0.00
8:06 am 08:06 Cloudy 24 -4.4 21 -6.1 88 88 NE 5 7 30.00 1016 8 13 0.00 0.00
8:53 am 08:53 Cloudy 26 -3.3 22 -5.6 84 84 Calm 29.96 1015 10 16 0.00 0.00
9:30 am 09:30 Cloudy 26 -3.3 21 -6.1 81 81 Calm 30.00 1016 10 16 0.00 0.00
9:53 am 09:53 Mostly Cloudy 27 -2.8 22 -5.6 81 81 Calm 29.96 1015 10 16 0.00 0.00
10:35 am 10:35 Partly Cloudy 29 -1.7 21 -6.1 72 72 ENE 5 7 29.98 1015 10 16 0.00 0.00
10:53 am 10:53 Sunny 30 -1.1 21 -6.1 69 69 NE 6 9 29.96 1015 10 16 0.00 0.00
11:53 am 11:53 Sunny 36 2.2 20 -6.7 52 52 VRB 3 6 29.93 1014 10 16 0.00 0.00
12:53 pm 12:53 Mostly Cloudy 35 1.7 17 -8.3 48 48 E 6 9 29.93 1014 10 16 0.00 0.00
1:53 pm 13:53 Partly Cloudy 38 3.3 19 -7.2 46 46 NE 8 13 29.91 1013 10 16 0.00 0.00
2:53 pm 14:53 Mostly Cloudy 37 2.8 21 -6.1 52 52 E 10 17 29.89 1012 10 16 0.00 0.00
3:53 pm 15:53 Mostly Sunny 37 2.8 21 -6.1 52 52 ENE 13 20 29.89 1012 10 16 0.00 0.00
4:53 pm 16:53 Sunny 36 2.2 21 -6.1 55 55 ENE 15 24 29.90 1012 10 16 0.00 0.00
5:53 pm 17:53 Sunny 34 1.1 19 -7.2 54 54 ENE 20 31 29.88 1012 10 16 0.00 0.00
6:53 pm 18:53 Sunny 31 -0.6 20 -6.7 64 64 ENE 15 24 29.90 1012 10 16 0.00 0.00
7:53 pm 19:53 Sunny 28 -2.2 17 -8.3 63 63 ENE 15 24 29.92 1013 10 16 0.00 0.00
8:53 pm 20:53 Clear 28 -2.2 17 -8.3 63 63 ENE 13 20 29.92 1013 10 16 0.00 0.00
9:53 pm 21:53 Clear 27 -2.8 18 -7.8 69 69 ENE 13 20 29.93 1013 10 16 0.00 0.00
10:53 pm 22:53 Clear 26 -3.3 16 -8.9 66 66 NE 10 17 29.91 1013 10 16 0.00 0.00
11:53 pm 23:53 Clear 24 -4.4 17 -8.3 75 75 NNE 10 17 29.88 1012 10 16 0.00 0.00

Powered by AerisWeather